map of IGS home
Great Circle Mapper logo
IGS - Airport
Location
City:  Ingolstadt, Bavaria, Germany
Name:Manching
ICAO / IATA:ETSI / IGS

Details
Type:Airport (Flugplatz, Airfield)
Use:Military
Latitude:4842'56"N (48.715667)
Longitude:1132'02"E (11.534000)
Elevation:1202 ft (366 m)
Variation:2.6E (WMM2010 magnetic declination)
Runways:2
Longest:9646 × 197 ft (2940 × 60 m), paved

Time
Time Zone:UTC+1 (DST+2)
Local Time:

Weather
METAR:ETSI 272220Z AUTO 08005KT //// // ////// M00/M01 Q1011 ///

Related Locations
Nearby:
Farthest:CHT: 11925 mi / 19191 km
Waitangi [Tuuta], Chatham Islands, NZ

Find:

   beyond  
but within

Other Information
Maps:
NOTAMs:
Links:
Sources:

  
flag of Germany
flag of Bavaria
  

Sectional Chart

Flight Planning
at skyvector.com

Satellite Image

Google Maps Satellite View

 

Copyright © 2004-2014 Karl L. Swartz. All rights reserved.
The Great Circle Mapper name and logo are trademarks of the Great Circle Mapper.
All other trademarks mentioned herein belong to their respective owners.
Please see credits for attibutions and further copyright information.

  Follow gcmap on Facebook Follow gcmap on Twitter

hCard Microformat

Geo Microformat